| time (UTC) | temp F | wind direction | speed MPH | gust MPH | rain 1hr in | rain 24hr in | rain mn in | humidity % | barometer mb |
| 20260504080301 | 48 | 4 | 4.0 | 5.0 | 0.00 | 0.00 | 0.00 | 79 | 1013.0 |
| 20260504080201 | 48 | 4 | 4.0 | 5.0 | 0.00 | 0.00 | 0.00 | 79 | 1013.0 |
| 20260504070300 | 49 | 360 | 3.0 | 6.0 | 0.00 | 0.00 | 0.00 | 89 | 1014.0 |
| 20260504070200 | 49 | 360 | 3.0 | 6.0 | 0.00 | 0.00 | 0.00 | 89 | 1014.0 |
| 20260504060158 | 49 | 356 | 3.0 | 7.0 | 0.00 | 0.00 | 0.00 | 79 | 1015.0 |
| 20260504050256 | 50 | 359 | 4.0 | 7.0 | 0.00 | 0.00 | 0.00 | 84 | 1015.0 |
| 20260504050156 | 50 | 359 | 4.0 | 7.0 | 0.00 | 0.00 | 0.00 | 84 | 1015.0 |
| 20260504044256 | 50 | 359 | 3.0 | 7.0 | 0.00 | 0.00 | 0.00 | 79 | 1015.0 |
| 20260504044156 | 50 | 359 | 3.0 | 7.0 | 0.00 | 0.00 | 0.00 | 79 | 1015.0 |
| 20260504042256 | 52 | 359 | 3.0 | 7.0 | 0.00 | 0.00 | 0.00 | 77 | 1015.0 |
| 20260504042155 | 52 | 359 | 3.0 | 7.0 | 0.00 | 0.00 | 0.00 | 77 | 1015.0 |
| 20260504040255 | 49 | 359 | 3.0 | 7.0 | 0.00 | 0.00 | 0.00 | 86 | 1015.0 |
| 20260504040155 | 49 | 359 | 3.0 | 7.0 | 0.00 | 0.00 | 0.00 | 86 | 1015.0 |
| 20260504034255 | 50 | 359 | 3.0 | 7.0 | 0.00 | 0.00 | 0.00 | 86 | 1015.0 |
| 20260504034154 | 50 | 359 | 3.0 | 7.0 | 0.00 | 0.00 | 0.00 | 86 | 1015.0 |
| 20260504032254 | 50 | 360 | 3.0 | 7.0 | 0.00 | 0.00 | 0.00 | 80 | 1014.0 |
| 20260504032154 | 50 | 360 | 3.0 | 7.0 | 0.00 | 0.00 | 0.00 | 80 | 1014.0 |
| 20260504030253 | 52 | 360 | 3.0 | 7.0 | 0.00 | 0.00 | 0.00 | 77 | 1015.0 |
| 20260504030154 | 52 | 360 | 3.0 | 7.0 | 0.00 | 0.00 | 0.00 | 77 | 1015.0 |
| 20260504024253 | 50 | 360 | 3.0 | 7.0 | 0.00 | 0.00 | 0.00 | 79 | 1015.0 |
| 20260504024153 | 50 | 360 | 3.0 | 7.0 | 0.00 | 0.00 | 0.00 | 79 | 1015.0 |
| 20260504022252 | 51 | 10 | 2.0 | 6.0 | 0.00 | 0.00 | 0.00 | 79 | 1013.0 |
| 20260504022152 | 51 | 10 | 2.0 | 6.0 | 0.00 | 0.00 | 0.00 | 79 | 1013.0 |
| 20260504020252 | 50 | 32 | 1.0 | 5.0 | 0.00 | 0.00 | 0.00 | 78 | 1014.0 |
| 20260504020152 | 50 | 32 | 1.0 | 5.0 | 0.00 | 0.00 | 0.00 | 78 | 1014.0 |
| 20260504014251 | 52 | 32 | 1.0 | 5.0 | 0.00 | 0.00 | 0.00 | 78 | 1014.0 |
| 20260504014151 | 52 | 32 | 1.0 | 5.0 | 0.00 | 0.00 | 0.00 | 78 | 1014.0 |
| 20260504012251 | 54 | 32 | 2.0 | 5.0 | 0.00 | 0.00 | 0.00 | 77 | 1012.0 |
| 20260504012151 | 54 | 32 | 2.0 | 5.0 | 0.00 | 0.00 | 0.00 | 77 | 1012.0 |
| 20260504010250 | 52 | 32 | 1.0 | 5.0 | 0.00 | 0.00 | 0.00 | 77 | 1014.0 |
| 20260504010150 | 52 | 32 | 1.0 | 5.0 | 0.00 | 0.00 | 0.00 | 77 | 1014.0 |
| 20260504004250 | 54 | 32 | 2.0 | 5.0 | 0.00 | 0.00 | 0.00 | 77 | 1013.0 |
| 20260504004149 | 54 | 32 | 2.0 | 5.0 | 0.00 | 0.00 | 0.00 | 77 | 1013.0 |
| 20260504002249 | 51 | 35 | 3.0 | 6.0 | 0.00 | 0.00 | 0.00 | 82 | 1012.0 |
| 20260504002149 | 51 | 35 | 3.0 | 6.0 | 0.00 | 0.00 | 0.00 | 82 | 1012.0 |
| 20260504000248 | 51 | 35 | 3.0 | 5.0 | 0.00 | 0.00 | 0.00 | 82 | 1013.0 |
| 20260504000148 | 51 | 35 | 3.0 | 5.0 | 0.00 | 0.00 | 0.00 | 82 | 1013.0 |
| 20260503234248 | 53 | 35 | 3.0 | 6.0 | 0.00 | 0.00 | 0.00 | 82 | 1013.0 |
| 20260503234148 | 53 | 35 | 3.0 | 6.0 | 0.00 | 0.00 | 0.00 | 82 | 1013.0 |
| 20260503232247 | 54 | 48 | 3.0 | 5.0 | 0.01 | 0.00 | 0.00 | 82 | 1011.0 |
| 20260503232147 | 54 | 48 | 3.0 | 5.0 | 0.01 | 0.00 | 0.00 | 82 | 1011.0 |
| 20260503230247 | 53 | 51 | 3.0 | 5.0 | 0.04 | 0.00 | 0.00 | 82 | 1012.0 |
| 20260503230147 | 53 | 51 | 3.0 | 5.0 | 0.04 | 0.00 | 0.00 | 82 | 1012.0 |
| 20260503224246 | 55 | 51 | 3.0 | 5.0 | 0.03 | 0.00 | 0.00 | 82 | 1012.0 |
| 20260503224146 | 55 | 51 | 3.0 | 5.0 | 0.03 | 0.00 | 0.00 | 82 | 1012.0 |
| 20260503222246 | 57 | 51 | 3.0 | 5.0 | 0.08 | 0.00 | 0.00 | 82 | 1011.0 |
| 20260503222145 | 57 | 51 | 3.0 | 5.0 | 0.08 | 0.00 | 0.00 | 82 | 1011.0 |
| 20260503220245 | 54 | 59 | 3.0 | 4.0 | 0.06 | 0.00 | 0.00 | 73 | 1012.0 |
| 20260503220145 | 54 | 59 | 3.0 | 4.0 | 0.06 | 0.00 | 0.00 | 73 | 1012.0 |
| 20260503214244 | 56 | 59 | 3.0 | 4.0 | 0.06 | 0.00 | 0.00 | 73 | 1012.0 |
| 20260503214144 | 56 | 59 | 3.0 | 4.0 | 0.06 | 0.00 | 0.00 | 73 | 1012.0 |
| 20260503212244 | 58 | 59 | 3.0 | 4.0 | 0.01 | 0.00 | 0.00 | 73 | 1011.0 |
| 20260503212144 | 58 | 59 | 3.0 | 4.0 | 0.01 | 0.00 | 0.00 | 73 | 1011.0 |
| 20260503210243 | 56 | 59 | 3.0 | 4.0 | 0.01 | 0.00 | 0.00 | 74 | 1012.0 |
| 20260503210143 | 56 | 59 | 3.0 | 4.0 | 0.01 | 0.00 | 0.00 | 74 | 1012.0 |
| 20260503204243 | 57 | 59 | 3.0 | 4.0 | 0.00 | 0.00 | 0.00 | 74 | 1012.0 |
| 20260503204143 | 57 | 59 | 3.0 | 4.0 | 0.00 | 0.00 | 0.00 | 74 | 1012.0 |
| 20260503202242 | 58 | 73 | 2.0 | 4.0 | 0.01 | 0.00 | 0.00 | 73 | 1011.0 |
| 20260503202142 | 58 | 73 | 2.0 | 4.0 | 0.01 | 0.00 | 0.00 | 73 | 1011.0 |
| 20260503200242 | 57 | 73 | 2.0 | 4.0 | 0.01 | 0.00 | 0.00 | 78 | 1012.0 |
| 20260503200141 | 57 | 73 | 2.0 | 4.0 | 0.01 | 0.00 | 0.00 | 78 | 1012.0 |
| 20260503194241 | 58 | 73 | 2.0 | 4.0 | 0.01 | 0.00 | 0.00 | 73 | 1012.0 |
| 20260503194141 | 58 | 73 | 2.0 | 4.0 | 0.01 | 0.00 | 0.00 | 73 | 1012.0 |
| 20260503192241 | 59 | 79 | 2.0 | 4.0 | 0.00 | 0.00 | 0.00 | 75 | 1012.0 |
| 20260503192140 | 59 | 79 | 2.0 | 4.0 | 0.00 | 0.00 | 0.00 | 75 | 1012.0 |
| 20260503190240 | 59 | 79 | 2.0 | 4.0 | 0.00 | 0.00 | 0.00 | 76 | 1013.0 |
| 20260503190140 | 59 | 79 | 2.0 | 4.0 | 0.00 | 0.00 | 0.00 | 76 | 1013.0 |
| 20260503184239 | 59 | 79 | 2.0 | 4.0 | 0.00 | 0.00 | 0.00 | 76 | 1013.0 |
| 20260503184139 | 59 | 79 | 2.0 | 4.0 | 0.00 | 0.00 | 0.00 | 76 | 1013.0 |
| 20260503182239 | 57 | 56 | 3.0 | 5.0 | 0.00 | 0.00 | 0.00 | 77 | 1013.0 |
| 20260503182139 | 57 | 56 | 3.0 | 5.0 | 0.00 | 0.00 | 0.00 | 77 | 1013.0 |
| 20260503180238 | 57 | 56 | 3.0 | 5.0 | 0.00 | 0.00 | 0.00 | 78 | 1014.0 |
| 20260503180138 | 57 | 56 | 3.0 | 5.0 | 0.00 | 0.00 | 0.00 | 78 | 1014.0 |
| 20260503174238 | 57 | 56 | 3.0 | 5.0 | 0.00 | 0.00 | 0.00 | 78 | 1014.0 |
| 20260503174138 | 57 | 56 | 3.0 | 5.0 | 0.00 | 0.00 | 0.00 | 78 | 1014.0 |
| 20260503172237 | 56 | 69 | 2.0 | 5.0 | 0.00 | 0.00 | 0.00 | 75 | 1014.0 |
| 20260503172137 | 56 | 69 | 2.0 | 5.0 | 0.00 | 0.00 | 0.00 | 75 | 1014.0 |
| 20260503170236 | 56 | 69 | 2.0 | 5.0 | 0.00 | 0.00 | 0.00 | 75 | 1015.0 |
| 20260503170136 | 56 | 69 | 2.0 | 5.0 | 0.00 | 0.00 | 0.00 | 75 | 1015.0 |
| 20260503160134 | 55 | 69 | 3.0 | 5.0 | 0.00 | 0.00 | 0.00 | 68 | 1015.0 |
| 20260503150233 | 55 | 65 | 2.0 | 4.0 | 0.00 | 0.00 | 0.00 | 71 | 1015.0 |
| 20260503150133 | 55 | 65 | 2.0 | 4.0 | 0.00 | 0.00 | 0.00 | 71 | 1015.0 |
| 20260503140231 | 54 | 30 | 2.0 | 5.0 | 0.00 | 0.00 | 0.00 | 79 | 1015.0 |
| 20260503140131 | 54 | 30 | 2.0 | 5.0 | 0.00 | 0.00 | 0.00 | 79 | 1015.0 |
| 20260503130229 | 52 | 6 | 3.0 | 6.0 | 0.00 | 0.00 | 0.00 | 90 | 1014.0 |
| 20260503130129 | 52 | 6 | 3.0 | 6.0 | 0.00 | 0.00 | 0.00 | 90 | 1014.0 |
| 20260503120127 | 48 | 356 | 4.0 | 5.0 | 0.00 | 0.00 | 0.00 | 83 | 1014.0 |
| 20260503110226 | 49 | 3 | 3.0 | 4.0 | 0.00 | 0.00 | 0.00 | 86 | 1014.0 |
| 20260503110126 | 49 | 3 | 3.0 | 4.0 | 0.00 | 0.00 | 0.00 | 86 | 1014.0 |
| 20260503100224 | 48 | 7 | 2.0 | 3.0 | 0.00 | 0.00 | 0.00 | 83 | 1013.0 |
| 20260503100124 | 48 | 7 | 2.0 | 3.0 | 0.00 | 0.00 | 0.00 | 83 | 1013.0 |
| 20260503090222 | 48 | 4 | 2.0 | 3.0 | 0.00 | 0.00 | 0.00 | 83 | 1013.0 |
| 20260503090122 | 48 | 4 | 2.0 | 3.0 | 0.00 | 0.00 | 0.00 | 83 | 1013.0 |